NIMIQ 4

Last updated on Wed Sep 23 2026 00:03:30 GMT+0000 (Coordinated Universal Time)

1 33373U 08044A 26265.48274454 -.00000224 00000+0 00000+0 0 9991 2 33373 0.0380 92.1063 0001913 89.0865 271.9343 1.00276135 65952
UTC large
Height (km)
Speed (km/s)
/
Latitude / Longitude
Inclination (degrees)
Orbital Period (minutes)
Azimuth
Elevation
Range (km)
Doppler Factor

Next 0 passes for location: London (51.5072 / 0.1276)

No passes found over London.
NIMIQ 4